EW2310 Weather Reports


Display with metric or nautical units.
time (UTC)temp
F
wind
direction
speed
MPH
gust
MPH
rain 1hr
in
rain 24hr
in
rain mn
in
humidity
%
barometer
mb
20180720023026 73 327 6.0 6.0 0.00 0.00 0.00 90 1012.2
20180720022526 73 318 0.0 0.0 0.00 0.00 0.00 90 1012.2
20180720022026 73 348 0.0 4.0 0.00 0.00 0.00 90 1012.2
20180720021526 73 314 0.0 0.0 0.00 0.00 0.00 90 1012.3
20180720021026 73 304 0.0 0.0 0.00 0.00 0.00 91 1012.3
20180720020526 73 311 0.0 0.0 0.00 0.00 0.00 90 1012.3
20180720020026 73 320 0.0 1.0 0.00 0.00 0.00 90 1012.3
20180720015526 73 321 0.0 0.0 0.00 0.00 0.00 90 1012.3
20180720015026 74 319 0.0 4.0 0.00 0.00 0.00 90 1012.3
20180720014526 74 305 0.0 0.0 0.00 0.00 0.00 90 1012.3
20180720014026 74 311 0.0 0.0 0.00 0.00 0.00 90 1012.3
20180720013526 74 292 0.0 0.0 0.00 0.00 0.00 89 1012.4
20180720013026 74 310 0.0 2.0 0.00 0.00 0.00 89 1012.3
20180720012525 74 331 0.0 0.0 0.00 0.00 0.00 89 1012.4
20180720012025 74 309 0.0 3.0 0.00 0.00 0.00 89 1012.4
20180720011525 74 316 0.0 5.0 0.00 0.00 0.00 89 1012.4
20180720011026 74 314 0.0 0.0 0.00 0.00 0.00 89 1012.4
20180720010526 74 313 0.0 0.0 0.00 0.00 0.00 89 1012.4
20180720010025 74 309 0.0 0.0 0.00 0.00 0.00 89 1012.4
20180720005525 74 309 0.0 1.0 0.00 0.00 0.00 88 1012.4
20180720005026 74 314 0.0 0.0 0.00 0.00 0.00 88 1012.4
20180720004525 74 309 0.0 4.0 0.00 0.00 0.00 88 1012.5
20180720004025 74 302 0.0 1.0 0.00 0.00 0.00 88 1012.5
20180720003525 74 315 0.0 0.0 0.00 0.00 0.00 88 1012.6
20180720003025 74 315 0.0 0.0 0.00 0.00 0.00 88 1012.6
20180720002525 74 315 0.0 0.0 0.00 0.00 0.00 88 1012.7
20180720002025 74 310 0.0 0.0 0.00 0.00 0.00 87 1012.8
20180720001525 74 315 0.0 0.0 0.00 0.00 0.00 87 1012.8
20180720001025 74 315 0.0 0.0 0.00 0.00 0.00 87 1012.8
20180720000525 74 338 0.0 0.0 0.00 0.00 0.00 87 1012.8
20180720000026 74 338 0.0 0.0 0.00 0.00 0.00 87 1012.8
20180719235526 75 338 0.0 0.0 0.00 0.00 0.00 86 1012.8
20180719235025 75 306 0.0 3.0 0.00 0.00 0.00 86 1012.9
20180719234525 75 306 0.0 0.0 0.00 0.00 0.00 87 1012.9
20180719234025 75 306 0.0 3.0 0.00 0.00 0.00 87 1012.9
20180719233525 75 311 0.0 1.0 0.00 0.00 0.00 87 1012.9
20180719233025 75 315 0.0 1.0 0.00 0.00 0.00 86 1012.8
20180719232525 75 289 0.0 0.0 0.00 0.00 0.00 86 1012.8
20180719232025 75 290 0.0 0.0 0.00 0.00 0.00 86 1012.8
20180719231525 75 301 0.0 0.0 0.00 0.00 0.00 86 1012.8
20180719231025 75 310 0.0 4.0 0.00 0.00 0.00 86 1012.8
20180719230526 75 308 0.0 0.0 0.00 0.00 0.00 86 1012.8
20180719230025 75 308 0.0 0.0 0.00 0.00 0.00 85 1012.8
20180719225525 75 296 0.0 4.0 0.00 0.00 0.00 85 1012.8
20180719225025 75 304 1.0 4.0 0.00 0.00 0.00 85 1012.9
20180719223025 76 296 1.0 3.0 0.00 0.00 0.00 85 1012.8
20180719222525 76 280 1.0 2.0 0.00 0.00 0.00 84 1012.8
20180719222025 76 306 0.0 1.0 0.00 0.00 0.00 84 1012.8
20180719221525 76 292 0.0 2.0 0.00 0.00 0.00 84 1012.8
20180719221025 76 288 2.0 3.0 0.00 0.00 0.00 84 1012.8
20180719220525 76 288 0.0 3.0 0.00 0.00 0.00 84 1012.9
20180719220025 76 277 1.0 3.0 0.00 0.00 0.00 84 1012.9
20180719215525 76 293 0.0 0.0 0.00 0.00 0.00 84 1012.9
20180719214525 76 280 1.0 3.0 0.00 0.00 0.00 84 1012.8
20180719214025 76 282 0.0 0.0 0.00 0.00 0.00 83 1012.8
20180719213525 76 298 0.0 0.0 0.00 0.00 0.00 83 1012.8
20180719213025 76 316 0.0 1.0 0.00 0.00 0.00 83 1012.8
20180719212525 76 266 0.0 1.0 0.00 0.00 0.00 83 1012.8
20180719212025 76 275 0.0 0.0 0.00 0.00 0.00 83 1012.8
20180719211525 76 272 0.0 0.0 0.00 0.00 0.00 83 1012.8
20180719211025 76 286 0.0 0.0 0.00 0.00 0.00 83 1012.8
20180719210525 76 290 0.0 0.0 0.00 0.00 0.00 83 1012.8
20180719210025 77 291 0.0 2.0 0.00 0.00 0.00 83 1012.8
20180719205525 77 309 0.0 2.0 0.00 0.00 0.00 83 1012.9
20180719205025 77 290 0.0 2.0 0.00 0.00 0.00 83 1012.9
20180719204525 77 295 0.0 1.0 0.00 0.00 0.00 83 1012.8
20180719204025 77 276 0.0 1.0 0.00 0.00 0.00 83 1012.8
20180719203525 77 306 0.0 4.0 0.00 0.00 0.00 83 1012.7
20180719203025 77 305 3.0 4.0 0.00 0.00 0.00 83 1012.7
20180719202524 77 292 0.0 0.0 0.00 0.00 0.00 82 1012.7
20180719202024 77 299 0.0 1.0 0.00 0.00 0.00 82 1012.7
20180719201525 77 300 0.0 0.0 0.00 0.00 0.00 82 1012.8
20180719201025 77 287 0.0 0.0 0.00 0.00 0.00 82 1012.9
20180719200524 77 304 0.0 2.0 0.00 0.00 0.00 81 1012.9
20180719200025 77 292 0.0 2.0 0.00 0.00 0.00 81 1012.9
20180719195524 77 244 0.0 3.0 0.00 0.00 0.00 81 1012.9
20180719195024 78 302 0.0 0.0 0.00 0.00 0.00 80 1012.9
20180719194525 78 311 0.0 4.0 0.00 0.00 0.00 80 1012.8
20180719194025 78 248 0.0 0.0 0.00 0.00 0.00 80 1012.8
20180719193524 78 263 0.0 1.0 0.00 0.00 0.00 79 1012.7
20180719193024 78 301 0.0 2.0 0.00 0.00 0.00 79 1012.7
20180719192525 78 302 1.0 2.0 0.00 0.00 0.00 78 1012.6
20180719192024 78 255 0.0 0.0 0.00 0.00 0.00 78 1012.6
20180719191525 78 240 0.0 1.0 0.00 0.00 0.00 77 1012.6
20180719191024 79 277 0.0 2.0 0.00 0.00 0.00 76 1012.6
20180719190524 79 261 0.0 1.0 0.00 0.00 0.00 75 1012.5
20180719190024 79 235 0.0 3.0 0.00 0.00 0.00 73 1012.4
20180719185525 79 264 0.0 2.0 0.00 0.00 0.00 72 1012.4
20180719185024 79 271 1.0 1.0 0.00 0.00 0.00 71 1012.3
20180719184524 79 281 0.0 3.0 0.00 0.00 0.00 70 1012.2
20180719184024 80 265 0.0 2.0 0.00 0.00 0.00 70 1012.2
20180719183524 80 284 3.0 3.0 0.00 0.00 0.00 69 1012.2
20180719183024 80 274 0.0 3.0 0.00 0.00 0.00 68 1012.2
20180719182524 80 272 0.0 2.0 0.00 0.00 0.00 68 1012.2
20180719182025 80 317 0.0 1.0 0.00 0.00 0.00 67 1012.1
20180719181524 81 251 0.0 1.0 0.00 0.00 0.00 66 1012.2
20180719181024 81 349 0.0 0.0 0.00 0.00 0.00 64 1012.2
20180719180524 81 224 0.0 1.0 0.00 0.00 0.00 62 1012.2
20180719180024 82 295 0.0 1.0 0.00 0.00 0.00 62 1012.3
20180719175525 82 22 0.0 1.0 0.00 0.00 0.00 61 1012.3
20180719175024 83 14 0.0 2.0 0.00 0.00 0.00 59 1012.3
20180719174524 83 333 1.0 3.0 0.00 0.00 0.00 58 1012.2
20180719174024 83 27 0.0 3.0 0.00 0.00 0.00 55 1012.2
20180719173524 84 302 0.0 1.0 0.00 0.00 0.00 54 1012.1
20180719173024 84 281 0.0 0.0 0.00 0.00 0.00 52 1012.1
20180719172524 84 296 0.0 0.0 0.00 0.00 0.00 51 1012.1
20180719172024 84 10 0.0 1.0 0.00 0.00 0.00 51 1012.1
20180719171524 84 216 0.0 2.0 0.00 0.00 0.00 52 1012.2
20180719171024 84 270 1.0 1.0 0.00 0.00 0.00 51 1012.2
20180719170524 84 315 0.0 1.0 0.00 0.00 0.00 48 1012.2
20180719170024 84 25 0.0 1.0 0.00 0.00 0.00 54 1012.2
20180719165524 84 25 0.0 1.0 0.00 0.00 0.00 54 1012.2
20180719165024 84 216 0.0 0.0 0.00 0.00 0.00 53 1012.2
20180719164524 84 217 0.0 3.0 0.00 0.00 0.00 52 1012.2
20180719164024 84 242 0.0 1.0 0.00 0.00 0.00 52 1012.3
20180719163524 84 0 0.0 4.0 0.00 0.00 0.00 52 1012.3
20180719163024 84 180 0.0 3.0 0.00 0.00 0.00 55 1012.2
20180719162524 84 285 0.0 1.0 0.00 0.00 0.00 56 1012.3
20180719162024 84 296 0.0 3.0 0.00 0.00 0.00 56 1012.3
20180719161524 85 290 0.0 2.0 0.00 0.00 0.00 58 1012.3
20180719161024 84 5 0.0 3.0 0.00 0.00 0.00 55 1012.4
20180719160524 85 156 1.0 7.0 0.00 0.00 0.00 58 1012.4
20180719160024 85 223 4.0 4.0 0.00 0.00 0.00 56 1012.5
20180719155524 85 227 2.0 7.0 0.00 0.00 0.00 56 1012.4
20180719155024 85 261 1.0 4.0 0.00 0.00 0.00 56 1012.5
20180719154524 85 261 4.0 4.0 0.00 0.00 0.00 56 1012.6
20180719154024 85 17 0.0 1.0 0.00 0.00 0.00 55 1012.6
20180719153524 85 21 0.0 4.0 0.00 0.00 0.00 55 1012.6
20180719153024 85 132 0.0 0.0 0.00 0.00 0.00 55 1012.6
20180719152524 85 238 0.0 1.0 0.00 0.00 0.00 55 1012.8
20180719152024 85 37 0.0 3.0 0.00 0.00 0.00 58 1012.7
20180719151524 85 143 1.0 3.0 0.00 0.00 0.00 57 1012.7
20180719151024 85 209 2.0 3.0 0.00 0.00 0.00 57 1012.7
20180719150524 85 210 3.0 5.0 0.00 0.00 0.00 57 1012.7
20180719150024 85 217 4.0 6.0 0.00 0.00 0.00 56 1012.8
20180719145524 85 257 2.0 6.0 0.00 0.00 0.00 57 1012.9
20180719145024 85 24 1.0 4.0 0.00 0.00 0.00 58 1012.9
20180719144524 85 331 0.0 6.0 0.00 0.00 0.00 56 1012.8
20180719144024 85 54 0.0 8.0 0.00 0.00 0.00 56 1012.9
20180719143524 85 334 1.0 7.0 0.00 0.00 0.00 56 1013.0
20180719143024 85 101 0.0 7.0 0.00 0.00 0.00 57 1013.0
20180719142524 85 271 1.0 4.0 0.00 0.00 0.00 55 1012.9
20180719142024 85 100 1.0 4.0 0.00 0.00 0.00 56 1013.0
20180719141524 85 96 2.0 5.0 0.00 0.00 0.00 56 1013.1
20180719141024 85 18 3.0 3.0 0.00 0.00 0.00 56 1013.1
20180719140524 85 294 1.0 11.0 0.00 0.00 0.00 57 1013.2
20180719140024 85 67 2.0 8.0 0.00 0.00 0.00 57 1013.1
20180719135524 86 19 2.0 7.0 0.00 0.00 0.00 57 1013.2
20180719135024 85 355 2.0 6.0 0.00 0.00 0.00 57 1013.1
20180719134524 85 196 2.0 7.0 0.00 0.00 0.00 58 1013.2
20180719134024 85 282 2.0 8.0 0.00 0.00 0.00 57 1013.2
20180719133524 85 193 9.0 9.0 0.00 0.00 0.00 58 1013.2
20180719133024 85 139 4.0 5.0 0.00 0.00 0.00 58 1013.2
20180719132524 85 162 4.0 7.0 0.00 0.00 0.00 58 1013.3
20180719132024 85 163 1.0 12.0 0.00 0.00 0.00 58 1013.3
20180719131524 85 191 4.0 6.0 0.00 0.00 0.00 58 1013.3
20180719131024 85 148 1.0 8.0 0.00 0.00 0.00 57 1013.3
20180719130524 85 24 2.0 9.0 0.00 0.00 0.00 56 1013.3
20180719130024 85 208 2.0 6.0 0.00 0.00 0.00 56 1013.3
20180719125524 85 188 3.0 8.0 0.00 0.00 0.00 56 1013.3
20180719125024 86 15 2.0 10.0 0.00 0.00 0.00 54 1013.3
20180719124524 86 47 0.0 4.0 0.00 0.00 0.00 54 1013.2
20180719124024 85 94 4.0 11.0 0.00 0.00 0.00 52 1013.2
20180719123524 85 298 2.0 11.0 0.00 0.00 0.00 51 1013.2
20180719123024 85 163 4.0 9.0 0.00 0.00 0.00 51 1013.2
20180719122524 85 287 1.0 5.0 0.00 0.00 0.00 53 1013.2
20180719122024 85 170 5.0 7.0 0.00 0.00 0.00 53 1013.2
20180719121524 85 171 1.0 8.0 0.00 0.00 0.00 53 1013.1
20180719121024 86 257 0.0 8.0 0.00 0.00 0.00 51 1013.1
20180719120524 86 10 0.0 8.0 0.00 0.00 0.00 48 1013.1
20180719120024 86 36 2.0 7.0 0.00 0.00 0.00 50 1013.0
20180719115524 86 279 3.0 6.0 0.00 0.00 0.00 47 1012.9
20180719115024 87 27 2.0 5.0 0.00 0.00 0.00 46 1013.0
20180719114524 87 33 0.0 8.0 0.00 0.00 0.00 44 1013.0
20180719114024 87 319 2.0 5.0 0.00 0.00 0.00 48 1013.0
20180719113524 87 277 1.0 5.0 0.00 0.00 0.00 49 1013.0
20180719113024 87 11 2.0 4.0 0.00 0.00 0.00 49 1013.0
20180719112524 86 34 1.0 10.0 0.00 0.00 0.00 47 1013.0
20180719112024 87 306 0.0 8.0 0.00 0.00 0.00 50 1013.0
20180719111524 87 5 1.0 5.0 0.00 0.00 0.00 49 1012.8
20180719111024 87 232 0.0 6.0 0.00 0.00 0.00 47 1013.0
20180719110524 87 130 1.0 5.0 0.00 0.00 0.00 49 1012.9
20180719110024 87 119 0.0 7.0 0.00 0.00 0.00 49 1012.9
20180719105524 87 94 1.0 10.0 0.00 0.00 0.00 49 1012.9
20180719105023 87 277 0.0 4.0 0.00 0.00 0.00 49 1012.9
20180719104523 86 48 3.0 7.0 0.00 0.00 0.00 49 1012.8
20180719104024 86 273 0.0 4.0 0.00 0.00 0.00 53 1012.9
20180719103524 86 263 0.0 9.0 0.00 0.00 0.00 52 1012.8
20180719103024 87 250 2.0 10.0 0.00 0.00 0.00 52 1012.8
20180719102524 88 240 8.0 8.0 0.00 0.00 0.00 48 1012.7
20180719102023 88 155 2.0 4.0 0.00 0.00 0.00 49 1012.7
20180719101523 88 201 4.0 4.0 0.00 0.00 0.00 45 1012.7
20180719101023 88 155 0.0 10.0 0.00 0.00 0.00 46 1012.6
20180719100523 88 44 1.0 3.0 0.00 0.00 0.00 45 1012.6
20180719100023 88 234 0.0 3.0 0.00 0.00 0.00 48 1012.5
20180719095523 88 246 0.0 8.0 0.00 0.00 0.00 45 1012.5
20180719095023 89 221 6.0 8.0 0.00 0.00 0.00 45 1012.4
20180719094524 89 260 0.0 1.0 0.00 0.00 0.00 45 1012.4
20180719094024 88 200 0.0 5.0 0.00 0.00 0.00 45 1012.3
20180719093524 88 198 1.0 2.0 0.00 0.00 0.00 46 1012.3
20180719093023 88 169 0.0 4.0 0.00 0.00 0.00 48 1012.2
20180719092523 88 182 0.0 4.0 0.00 0.00 0.00 48 1012.3
20180719092023 88 229 4.0 4.0 0.00 0.00 0.00 47 1012.3
20180719091523 88 289 0.0 1.0 0.00 0.00 0.00 48 1012.3
20180719091023 88 230 0.0 2.0 0.00 0.00 0.00 50 1012.3
20180719090523 89 242 0.0 2.0 0.00 0.00 0.00 52 1012.3
20180719090023 89 256 0.0 6.0 0.00 0.00 0.00 50 1012.3
20180719085523 89 223 1.0 4.0 0.00 0.00 0.00 50 1012.3
20180719085023 89 230 0.0 0.0 0.00 0.00 0.00 43 1012.3
20180719084523 89 194 0.0 1.0 0.00 0.00 0.00 42 1012.2
20180719084023 88 207 0.0 2.0 0.00 0.00 0.00 43 1012.1
20180719083523 88 272 1.0 1.0 0.00 0.00 0.00 45 1012.2
20180719083023 87 219 0.0 0.0 0.00 0.00 0.00 46 1012.1
20180719082523 87 219 0.0 0.0 0.00 0.00 0.00 47 1012.2
20180719082023 86 219 0.0 4.0 0.00 0.00 0.00 49 1012.2
20180719081523 86 223 3.0 3.0 0.00 0.00 0.00 53 1012.0
20180719081023 85 59 0.0 0.0 0.00 0.00 0.00 54 1012.0
20180719080523 85 59 0.0 0.0 0.00 0.00 0.00 53 1012.0
20180719080024 84 59 0.0 0.0 0.00 0.00 0.00 53 1012.0
20180719075523 83 59 0.0 0.0 0.00 0.00 0.00 55 1012.0
20180719075023 83 59 0.0 1.0 0.00 0.00 0.00 59 1012.0
20180719074523 82 65 0.0 0.0 0.00 0.00 0.00 60 1012.1
20180719074023 82 104 0.0 0.0 0.00 0.00 0.00 60 1012.1
20180719073523 82 290 0.0 1.0 0.00 0.00 0.00 62 1012.1
20180719073023 81 339 0.0 0.0 0.00 0.00 0.00 62 1012.1
20180719072523 81 5 0.0 3.0 0.00 0.00 0.00 63 1012.1
20180719072023 80 46 1.0 2.0 0.00 0.00 0.00 64 1012.2
20180719071523 80 45 0.0 0.0 0.00 0.00 0.00 64 1012.2
20180719071023 79 27 0.0 1.0 0.00 0.00 0.00 66 1012.2
20180719070523 79 50 0.0 4.0 0.00 0.00 0.00 66 1012.2
20180719070023 79 11 0.0 4.0 0.00 0.00 0.00 67 1012.2
20180719065523 78 38 0.0 0.0 0.00 0.00 0.00 67 1012.2
20180719065023 78 42 0.0 0.0 0.00 0.00 0.00 69 1012.2
20180719064523 78 42 0.0 0.0 0.00 0.00 0.00 70 1012.2
20180719064023 77 344 0.0 0.0 0.00 0.00 0.00 70 1012.2
20180719063523 77 340 0.0 0.0 0.00 0.00 0.00 71 1012.3
20180719063023 77 325 0.0 4.0 0.00 0.00 0.00 73 1012.3
20180719062523 76 315 0.0 4.0 0.00 0.00 0.00 75 1012.3
20180719062023 76 321 0.0 5.0 0.00 0.00 0.00 76 1012.2
20180719061523 76 350 0.0 4.0 0.00 0.00 0.00 76 1012.2
20180719061023 76 326 0.0 0.0 0.00 0.00 0.00 77 1012.2
20180719060523 76 314 0.0 2.0 0.00 0.00 0.00 77 1012.2
20180719060023 76 308 1.0 5.0 0.00 0.00 0.00 78 1012.3
20180719055523 76 315 0.0 6.0 0.00 0.00 0.00 78 1012.3
20180719055023 75 309 0.0 5.0 0.00 0.00 0.00 78 1012.2
20180719054523 75 328 4.0 6.0 0.00 0.00 0.00 77 1012.3
20180719054023 75 325 1.0 4.0 0.00 0.00 0.00 76 1012.4
20180719053523 75 293 1.0 4.0 0.00 0.00 0.00 76 1012.4
20180719053023 75 309 4.0 6.0 0.00 0.00 0.00 76 1012.5
20180719052523 75 300 2.0 5.0 0.00 0.00 0.00 75 1012.5
20180719052023 75 302 2.0 7.0 0.00 0.00 0.00 75 1012.4
20180719051523 75 327 0.0 3.0 0.00 0.00 0.00 75 1012.4
20180719051023 75 305 0.0 3.0 0.00 0.00 0.00 77 1012.5
20180719050523 75 298 0.0 1.0 0.00 0.00 0.00 78 1012.5
20180719050023 74 271 0.0 2.0 0.00 0.00 0.00 79 1012.6
20180719045523 74 287 0.0 2.0 0.00 0.00 0.00 80 1012.6
20180719045023 74 280 0.0 0.0 0.00 0.00 0.00 81 1012.6
20180719044523 73 222 0.0 0.0 0.00 0.00 0.00 83 1012.7
20180719044023 73 291 0.0 0.0 0.00 0.00 0.00 84 1012.6
20180719043523 72 289 0.0 0.0 0.00 0.00 0.00 85 1012.8
20180719043023 72 292 0.0 0.0 0.00 0.00 0.00 87 1012.7
20180719042523 72 288 0.0 0.0 0.00 0.00 0.00 89 1012.8
20180719042023 72 288 0.0 1.0 0.00 0.00 0.00 90 1012.7
20180719041523 72 335 0.0 1.0 0.00 0.00 0.00 90 1012.7
20180719041023 72 304 0.0 0.0 0.00 0.00 0.00 91 1012.7
20180719040523 73 298 0.0 0.0 0.00 0.00 0.00 91 1012.8
20180719040023 73 306 0.0 0.0 0.00 0.00 0.00 91 1012.8
20180719035523 73 300 0.0 3.0 0.00 0.00 0.00 91 1012.8
20180719035023 73 348 0.0 0.0 0.00 0.00 0.00 91 1012.8
20180719034523 73 341 0.0 0.0 0.00 0.00 0.00 91 1012.8
20180719034023 73 314 0.0 0.0 0.00 0.00 0.00 91 1012.8
20180719033523 73 309 0.0 3.0 0.00 0.00 0.00 91 1012.8
20180719033023 74 305 0.0 3.0 0.00 0.00 0.00 91 1012.8
20180719032523 74 316 0.0 1.0 0.00 0.00 0.00 91 1012.8
20180719032023 74 307 0.0 2.0 0.00 0.00 0.00 91 1012.8
20180719031523 74 303 2.0 3.0 0.00 0.00 0.00 91 1012.9
20180719031023 74 295 0.0 1.0 0.00 0.00 0.00 91 1012.9
20180719030523 74 303 0.0 2.0 0.00 0.00 0.00 91 1012.9
20180719030023 74 315 0.0 0.0 0.00 0.00 0.00 90 1012.9
20180719025523 74 315 0.0 0.0 0.00 0.00 0.00 90 1012.9
20180719025023 74 315 0.0 0.0 0.00 0.00 0.00 90 1012.8
20180719024523 74 315 0.0 0.0 0.00 0.00 0.00 90 1012.8
20180719024023 74 315 0.0 0.0 0.00 0.00 0.00 90 1012.8
20180719023523 74 311 0.0 1.0 0.00 0.00 0.00 90 1012.8